Tacoma, WA
on Monday, November 12, 2012

Monday
Previous Day Next Day
Daily Summary
 ActualAverage (KSEA)Record (KSEA)
Temperature
Mean Temperature °F 46°F  
Max Temperature 55°F 52°F 60°F (1953)
Min Temperature 44°F 41°F 13°F (1955)
Degree Days
Heating Degree Days 16 19  
Month to date heating degree days 211  
Since 1 July heating degree days 808  
Cooling Degree Days 0 0  
Month to date cooling degree days 0  
Year to date cooling degree days 189  
Moisture
Dew Point 46°F   
Average Humidity 95    
Maximum Humidity 100    
Minimum Humidity 72    
Precipitation
Precipitation 0.07 in 0.23 in 1.52 in (1999)
Month to date precipitation 2.50  
Year to date precipitation 28.07  
Snow
Snow 0.00 in in T in (1955)
Month to date snowfall  
Since 1 July snowfall  
Snow Depth in   
Wind
Wind Speed 3 mph   
Max Wind Speed 13 mph   
Max Gust Speed mph   
Visibility 8 miles   
Events Rain   

Key: T is trace of precipitation, MM is missing value
Source: NWS Daily Summary
Time(PST)TemperatureDew PointHumidity Pressure Visibility Wind DirectionWind SpeedGust SpeedPrecipitationEvents Conditions
12:05 AM 44.6°F 44.6°F 100% 30.07 in 10.0 miles North 4.6 mph - N/A Rain Light Rain
12:15 AM 44.6°F 44.6°F 100% 30.08 in 10.0 miles NNE 2.3 mph - N/A   Overcast
12:56 AM 44.6°F 44.6°F 100% 30.07 in 10.0 miles Calm Calm - N/A   Overcast
12:58 AM 44.6°F 44.4°F 99% 30.10 in 10.0 miles North 2.3 mph - 0.01 in   Overcast
1:05 AM 44.6°F 44.6°F 100% 30.08 in 10.0 miles North 3.5 mph - N/A Rain Light Rain
1:53 AM 44.6°F 44.6°F 100% 30.08 in 9.0 miles NNE 4.6 mph - N/A   Overcast
1:58 AM 44.6°F 44.4°F 99% 30.10 in 9.0 miles NNE 3.5 mph - 0.02 in   Overcast
2:17 AM 44.6°F 44.6°F 100% 30.08 in 7.0 miles NNE 1.2 mph - N/A Rain Light Rain
2:31 AM 44.6°F 44.6°F 100% 30.08 in 7.0 miles NE 2.3 mph - N/A   Overcast
2:58 AM 44.6°F 44.4°F 99% 30.10 in 6.0 miles NNE 2.3 mph - 0.00 in   Overcast
3:06 AM 44.6°F 44.6°F 100% 30.08 in 5.0 miles NNE 2.3 mph - N/A   Light Drizzle
3:25 AM 44.6°F 44.6°F 100% 30.08 in 5.0 miles NNE 1.2 mph - N/A   Overcast
3:58 AM 44.2°F 43.9°F 99% 30.10 in 6.0 miles North 2.3 mph - 0.00 in   Overcast
4:03 AM 44.6°F 44.6°F 100% 30.08 in 6.0 miles NNE 3.5 mph - N/A   Overcast
4:04 AM 44.6°F 44.6°F 100% 30.08 in 6.0 miles Variable 2.3 mph - N/A Rain Light Rain
4:17 AM 44.6°F 44.6°F 100% 30.08 in 8.0 miles North 2.3 mph - N/A   Overcast
4:37 AM 44.6°F 44.6°F 100% 30.09 in 6.0 miles Calm Calm - N/A   Overcast
4:47 AM 44.6°F 44.6°F 100% 30.09 in 6.0 miles Calm Calm - N/A   Overcast
4:52 AM 44.6°F 44.6°F 100% 30.09 in 5.0 miles Calm Calm - N/A Rain Light Rain
4:57 AM 44.6°F 44.6°F 100% 30.09 in 4.0 miles Calm Calm - N/A   Light Drizzle
4:58 AM 44.4°F 44.2°F 99% 30.11 in 4.0 miles Calm Calm - 0.01 in   Light Drizzle
5:07 AM 44.6°F 44.6°F 100% 30.09 in 4.0 miles South 1.2 mph - N/A   Overcast
5:14 AM 44.6°F 44.6°F 100% 30.09 in 3.0 miles Calm Calm - N/A   Light Drizzle
5:24 AM 44.6°F 44.6°F 100% 30.09 in 4.0 miles Calm Calm - N/A   Overcast
5:29 AM 44.6°F 44.6°F 100% 30.09 in 4.0 miles Calm Calm - N/A   Light Drizzle
5:41 AM 44.6°F 44.6°F 100% 30.09 in 6.0 miles Calm Calm - N/A   Overcast
5:44 AM 44.6°F 44.6°F 100% 30.09 in 7.0 miles Calm Calm - N/A Rain Light Rain
5:58 AM 44.6°F 44.4°F 99% 30.11 in 4.0 miles Calm Calm - 0.00 in Rain Light Rain
6:02 AM 44.6°F 44.6°F 100% 30.09 in 5.0 miles Calm Calm - N/A   Overcast
6:07 AM 44.6°F 44.6°F 100% 30.09 in 7.0 miles Calm Calm - N/A   Overcast
6:58 AM 44.8°F 44.4°F 99% 30.12 in 10.0 miles South 3.5 mph - 0.01 in   Overcast
7:08 AM 44.6°F 44.6°F 100% 30.10 in 10.0 miles WSW 1.2 mph - N/A   Overcast
7:43 AM 46.4°F 44.6°F 93% 30.11 in 10.0 miles SW 3.5 mph - N/A   Overcast
7:58 AM 45.9°F 45.7°F 99% 30.13 in 10.0 miles SSW 3.5 mph - N/A   Overcast
8:58 AM 48.0°F 47.1°F 97% 30.14 in 10.0 miles South 9.2 mph - N/A   Overcast
9:58 AM 50.4°F 48.0°F 92% 30.16 in 10.0 miles SW 8.1 mph - N/A   Overcast
10:58 AM 52.3°F 47.7°F 84% 30.17 in 10.0 miles SW 9.2 mph - N/A   Overcast
11:18 AM 53.6°F 48.2°F 82% 30.15 in 10.0 miles SW 9.2 mph - N/A   Scattered Clouds
11:58 AM 54.5°F 47.7°F 78% 30.17 in 10.0 miles SW 12.7 mph - N/A   Scattered Clouds
12:08 PM 55.4°F 48.2°F 77% 30.15 in 10.0 miles SSW 10.4 mph - N/A   Mostly Cloudy
12:38 PM 55.4°F 48.2°F 77% 30.15 in 10.0 miles SW 9.2 mph - N/A   Mostly Cloudy
12:43 PM 55.4°F 46.4°F 72% 30.15 in 10.0 miles SW 11.5 mph - N/A   Mostly Cloudy
12:53 PM 53.6°F 46.4°F 77% 30.15 in 10.0 miles SW 9.2 mph - N/A   Overcast
12:58 PM 54.1°F 47.1°F 77% 30.17 in 10.0 miles SW 10.4 mph - N/A   Overcast
1:58 PM 53.6°F 47.5°F 80% 30.18 in 10.0 miles SW 11.5 mph - N/A   Overcast
2:58 PM 52.9°F 47.5°F 82% 30.18 in 10.0 miles South 5.8 mph - N/A   Overcast
3:58 PM 52.3°F 47.3°F 83% 30.19 in 10.0 miles SW 3.5 mph - N/A   Mostly Cloudy
4:58 PM 51.1°F 47.3°F 87% 30.19 in 10.0 miles SW 4.6 mph - N/A   Overcast
5:54 PM 50.0°F 46.4°F 87% 30.18 in 10.0 miles SSW 2.3 mph - N/A Rain Light Rain
5:58 PM 49.3°F 46.9°F 92% 30.20 in 10.0 miles South 2.3 mph - 0.00 in Rain Light Rain
6:03 PM 48.2°F 46.4°F 93% 30.18 in 10.0 miles South 2.3 mph - N/A   Overcast
6:08 PM 48.2°F 46.4°F 93% 30.18 in 10.0 miles South 3.5 mph - N/A Rain Light Rain
6:17 PM 48.2°F 48.2°F 100% 30.18 in 10.0 miles South 3.5 mph - N/A   Overcast
6:21 PM 48.2°F 48.2°F 100% 30.18 in 10.0 miles South 3.5 mph - N/A Rain Light Rain
6:32 PM 48.2°F 48.2°F 100% 30.18 in 10.0 miles South 4.6 mph - N/A   Overcast
6:58 PM 48.0°F 47.1°F 97% 30.21 in 10.0 miles South 4.6 mph - 0.00 in   Overcast
7:21 PM 48.2°F 48.2°F 100% 30.19 in 10.0 miles South 3.5 mph - N/A Rain Light Rain
7:35 PM 48.2°F 48.2°F 100% 30.19 in 10.0 miles South 4.6 mph - N/A   Overcast
7:52 PM 48.2°F 48.2°F 100% 30.20 in 10.0 miles SSW 3.5 mph - N/A Rain Light Rain
7:58 PM 48.4°F 47.7°F 97% 30.22 in 10.0 miles South 3.5 mph - 0.00 in Rain Light Rain
8:10 PM 48.2°F 48.2°F 100% 30.20 in 10.0 miles SSW 4.6 mph - N/A   Overcast
8:15 PM 48.2°F 48.2°F 100% 30.20 in 10.0 miles South 3.5 mph - N/A Rain Light Rain
8:25 PM 48.2°F 48.2°F 100% 30.21 in 10.0 miles South 2.3 mph - N/A Rain Light Rain
8:31 PM 48.2°F 48.2°F 100% 30.21 in 10.0 miles SSW 2.3 mph - N/A   Overcast
8:56 PM 48.2°F 46.4°F 93% 30.21 in 9.0 miles South 3.5 mph - N/A   Overcast
8:58 PM 47.7°F 47.3°F 99% 30.23 in 9.0 miles South 3.5 mph - 0.02 in   Overcast
9:23 PM 48.2°F 46.4°F 93% 30.21 in 10.0 miles SSW 2.3 mph - N/A Rain Light Rain
9:34 PM 48.2°F 46.4°F 93% 30.21 in 10.0 miles South 3.5 mph - N/A   Overcast
9:58 PM 47.3°F 46.9°F 99% 30.24 in 10.0 miles South 3.5 mph - 0.00 in   Overcast
10:58 PM 47.5°F 47.3°F 99% 30.24 in 10.0 miles South 6.9 mph - N/A   Overcast
11:58 PM 46.6°F 46.4°F 99% 30.24 in 10.0 miles SE 1.2 mph - N/A   Overcast
Moon Phase
Nov. 12 Nov. 13 Nov. 20 Nov. 28 Dec. 06
Sunrise:07:10 AM (PST) Moon Rise:05:39 AM (PST)11/12
Sunset:04:37 PM (PST) Moon Set:03:48 PM (PST)11/12

Copyright © 2014 The Weather Underground, Inc.